Location: *
(24.1434°N, 56.8729°E)
Time: 22:20:48
(UTC+00:00)

Geosat - Pass Details

Date: 09 April 2020
Orbit: 763 x 766 km, 108.0° (Epoch: 24 May)

Event Time Altitude Azimuth Distance (km) Brightness Sun altitude
Rises 23:41:41 0° 26° (NNE) 3,229 8.0 -30.0°
Reaches altitude 10° 23:43:59 10° 29° (NNE) 2,301 7.1 -29.5°
Maximum altitude 23:48:58 67° 112° (ESE) 826 4.2 -28.5°
Enters shadow 23:48:59 67° 113° (ESE) 826 4.1 -28.5°
